Time,TemperatureF,DewpointF,PressureIn,WindDirection,WindDirectionDegrees,WindSpeedMPH,WindSpeedGustMPH,Humidity,HourlyPrecipIn,Conditions,Clouds,dailyrainin,SolarRadiationWatts/m^2,SoftwareType,DateUTC
2013-03-25 00:03:00,31.8,12.8,29.98,ENE,76,15.0,19.6,45,0.00,CLR,,0.00,0.0,WeatherDisplay:10.37,2013-03-24 23:03:00,
2013-03-25 00:08:00,31.8,12.8,29.98,East,93,16.1,24.2,45,0.00,CLR,,0.00,0.0,WeatherDisplay:10.37,2013-03-24 23:08:00,
2013-03-25 00:13:00,31.8,13.3,29.98,East,85,15.4,19.6,46,0.00,CLR,,0.00,0.0,WeatherDisplay:10.37,2013-03-24 23:13:00,
2013-03-25 00:18:00,31.7,13.2,29.98,East,100,15.9,24.0,46,0.00,CLR,,0.00,0.0,WeatherDisplay:10.37,2013-03-24 23:18:00,
2013-03-25 00:23:00,31.6,12.6,29.98,East,97,16.5,23.0,45,0.00,CLR,,0.00,0.0,WeatherDisplay:10.37,2013-03-24 23:23:00,
2013-03-25 00:28:00,31.6,12.6,29.98,East,101,15.4,23.0,45,0.00,CLR,,0.00,0.0,WeatherDisplay:10.37,2013-03-24 23:28:00,
2013-03-25 00:33:00,31.6,12.6,29.98,SE,125,16.7,21.9,45,0.00,CLR,,0.00,0.0,WeatherDisplay:10.37,2013-03-24 23:33:00,
2013-03-25 00:38:00,31.5,12.6,29.98,East,101,16.0,21.9,45,0.00,CLR,,0.00,0.0,WeatherDisplay:10.37,2013-03-24 23:38:00,
2013-03-25 00:43:00,31.5,12.6,29.98,East,88,17.5,23.0,45,0.00,CLR,,0.00,0.0,WeatherDisplay:10.37,2013-03-24 23:43:00,
2013-03-25 00:48:00,31.4,13.0,29.98,ESE,111,12.7,23.0,46,0.00,CLR,,0.00,0.0,WeatherDisplay:10.37,2013-03-24 23:48:00,
2013-03-25 00:53:00,31.4,13.4,29.98,East,84,10.7,12.7,47,0.00,CLR,,0.00,0.0,WeatherDisplay:10.37,2013-03-24 23:53:00,
2013-03-25 00:58:00,31.4,13.4,29.98,East,80,13.7,24.2,47,0.00,CLR,,0.00,0.0,WeatherDisplay:10.37,2013-03-24 23:58:00,
2013-03-25 01:03:00,31.3,12.9,29.98,East,87,12.8,18.4,46,0.00,CLR,,0.00,0.0,WeatherDisplay:10.37,2013-03-25 00:03:00,
2013-03-25 01:08:00,31.3,13.4,29.98,ENE,78,11.1,18.4,47,0.00,CLR,,0.00,0.0,WeatherDisplay:10.37,2013-03-25 00:08:00,
2013-03-25 01:13:00,31.2,13.3,29.98,East,93,9.2,15.0,47,0.00,CLR,,0.00,0.0,WeatherDisplay:10.37,2013-03-25 00:13:00,
2013-03-25 01:18:00,31.1,13.7,29.98,ENE,78,10.6,16.1,48,0.00,CLR,,0.00,0.0,WeatherDisplay:10.37,2013-03-25 00:18:00,
2013-03-25 01:23:00,31.0,13.6,29.98,East,92,16.8,19.6,48,0.00,CLR,,0.00,0.0,WeatherDisplay:10.37,2013-03-25 00:23:00,
2013-03-25 01:28:00,30.9,13.5,29.98,East,95,12.3,15.0,48,0.00,CLR,,0.00,0.0,WeatherDisplay:10.37,2013-03-25 00:28:00,
2013-03-25 01:33:00,30.8,13.8,29.98,East,88,12.3,19.6,49,0.00,CLR,,0.00,0.0,WeatherDisplay:10.37,2013-03-25 00:33:00,
2013-03-25 01:38:00,30.7,13.8,29.98,ESE,109,11.2,19.6,49,0.00,CLR,,0.00,0.0,WeatherDisplay:10.37,2013-03-25 00:38:00,
2013-03-25 01:43:00,30.6,13.7,29.98,East,99,14.8,16.1,49,0.00,CLR,,0.00,0.0,WeatherDisplay:10.37,2013-03-25 00:43:00,
2013-03-25 01:48:00,30.5,14.0,29.98,East,88,10.9,17.3,50,0.00,CLR,,0.00,0.0,WeatherDisplay:10.37,2013-03-25 00:48:00,
2013-03-25 01:53:00,30.5,14.0,29.98,East,86,14.5,18.4,50,0.00,CLR,,0.00,0.0,WeatherDisplay:10.37,2013-03-25 00:53:00,
2013-03-25 01:58:00,30.5,14.0,29.98,East,101,11.5,19.6,50,0.00,CLR,,0.00,0.0,WeatherDisplay:10.37,2013-03-25 00:58:00,
2013-03-25 02:03:00,30.4,13.9,29.98,East,85,12.8,20.7,50,0.00,CLR,,0.00,0.0,WeatherDisplay:10.37,2013-03-25 01:03:00,
2013-03-25 02:08:00,30.4,14.4,29.98,East,81,7.1,11.5,51,0.00,CLR,,0.00,0.0,WeatherDisplay:10.37,2013-03-25 01:08:00,
2013-03-25 02:13:00,30.3,14.3,29.98,East,92,11.5,20.0,51,0.00,CLR,,0.00,0.0,WeatherDisplay:10.37,2013-03-25 01:13:00,
2013-03-25 02:18:00,30.3,14.3,29.98,East,99,13.1,19.6,51,0.00,CLR,,0.00,0.0,WeatherDisplay:10.37,2013-03-25 01:18:00,
2013-03-25 02:23:00,30.3,14.3,29.98,East,93,10.1,13.8,51,0.00,CLR,,0.00,0.0,WeatherDisplay:10.37,2013-03-25 01:23:00,
2013-03-25 02:28:00,30.3,14.3,29.98,East,89,15.0,20.7,51,0.00,CLR,,0.00,0.0,WeatherDisplay:10.37,2013-03-25 01:28:00,
2013-03-25 02:33:00,30.2,14.2,29.98,East,90,11.8,15.0,51,0.00,CLR,,0.00,0.0,WeatherDisplay:10.37,2013-03-25 01:33:00,
2013-03-25 02:38:00,30.1,14.6,29.98,East,82,10.0,15.0,52,0.00,CLR,,0.00,0.0,WeatherDisplay:10.37,2013-03-25 01:38:00,
2013-03-25 02:43:00,30.1,14.6,29.98,East,94,12.2,18.4,52,0.00,CLR,,0.00,0.0,WeatherDisplay:10.37,2013-03-25 01:43:00,
2013-03-25 02:48:00,30.1,14.6,29.98,East,88,16.1,19.6,52,0.00,CLR,,0.00,0.0,WeatherDisplay:10.37,2013-03-25 01:48:00,
2013-03-25 02:53:00,30.0,14.5,29.98,East,99,8.1,11.5,52,0.00,CLR,,0.00,0.0,WeatherDisplay:10.37,2013-03-25 01:53:00,
2013-03-25 02:58:00,29.9,14.4,29.98,ESE,109,11.2,15.0,52,0.00,CLR,,0.00,0.0,WeatherDisplay:10.37,2013-03-25 01:58:00,
2013-03-25 03:03:00,29.9,14.8,29.98,ENE,68,7.3,11.5,53,0.00,CLR,,0.00,0.0,WeatherDisplay:10.37,2013-03-25 02:03:00,
2013-03-25 03:08:00,29.8,14.7,29.98,East,95,7.8,14.0,53,0.00,CLR,,0.00,0.0,WeatherDisplay:10.37,2013-03-25 02:08:00,
2013-03-25 03:13:00,29.7,14.6,29.97,East,92,11.3,18.4,53,0.00,CLR,,0.00,0.0,WeatherDisplay:10.37,2013-03-25 02:13:00,
2013-03-25 03:18:00,29.6,14.5,29.97,ESE,105,12.8,19.6,53,0.00,CLR,,0.00,0.0,WeatherDisplay:10.37,2013-03-25 02:18:00,
2013-03-25 03:23:00,29.5,14.9,29.97,East,81,7.9,11.5,54,0.00,CLR,,0.00,0.0,WeatherDisplay:10.37,2013-03-25 02:23:00,
2013-03-25 03:28:00,29.5,14.9,29.97,East,80,11.1,18.4,54,0.00,CLR,,0.00,0.0,WeatherDisplay:10.37,2013-03-25 02:28:00,
2013-03-25 03:33:00,29.4,14.8,29.97,ENE,78,7.8,13.8,54,0.00,CLR,,0.00,0.0,WeatherDisplay:10.37,2013-03-25 02:33:00,
2013-03-25 03:38:00,29.4,14.8,29.97,ENE,75,8.5,16.1,54,0.00,CLR,,0.00,0.0,WeatherDisplay:10.37,2013-03-25 02:38:00,
2013-03-25 03:43:00,29.3,15.1,29.98,East,98,5.8,9.2,55,0.00,CLR,,0.00,0.0,WeatherDisplay:10.37,2013-03-25 02:43:00,
2013-03-25 03:48:00,29.2,15.0,29.97,East,86,15.2,19.6,55,0.00,CLR,,0.00,0.0,WeatherDisplay:10.37,2013-03-25 02:48:00,
2013-03-25 03:53:00,29.2,15.0,29.97,ENE,78,9.4,12.7,55,0.00,CLR,,0.00,0.0,WeatherDisplay:10.37,2013-03-25 02:53:00,
2013-03-25 03:58:00,29.2,15.0,29.98,ENE,72,9.4,16.1,55,0.00,CLR,,0.00,0.0,WeatherDisplay:10.37,2013-03-25 02:58:00,
2013-03-25 04:03:00,29.1,15.3,29.97,East,90,7.8,10.4,56,0.00,CLR,,0.00,0.0,WeatherDisplay:10.37,2013-03-25 03:03:00,
2013-03-25 04:08:00,29.0,15.2,29.97,East,93,10.8,14.0,56,0.00,CLR,,0.00,0.0,WeatherDisplay:10.37,2013-03-25 03:08:00,
2013-03-25 04:13:00,29.0,15.2,29.97,East,80,9.5,18.4,56,0.00,CLR,,0.00,0.0,WeatherDisplay:10.37,2013-03-25 03:13:00,
2013-03-25 04:18:00,29.0,15.2,29.97,ENE,63,13.8,20.7,56,0.00,CLR,,0.00,0.0,WeatherDisplay:10.37,2013-03-25 03:18:00,
2013-03-25 04:23:00,29.0,15.2,29.97,East,79,9.4,18.0,56,0.00,CLR,,0.00,0.0,WeatherDisplay:10.37,2013-03-25 03:23:00,
2013-03-25 04:28:00,29.0,15.2,29.97,ENE,68,10.6,15.0,56,0.00,CLR,,0.00,0.0,WeatherDisplay:10.37,2013-03-25 03:28:00,
2013-03-25 04:33:00,29.0,15.2,29.97,ENE,77,8.6,13.0,56,0.00,CLR,,0.00,0.0,WeatherDisplay:10.37,2013-03-25 03:33:00,
2013-03-25 04:38:00,28.9,15.5,29.97,East,100,8.7,12.7,57,0.00,CLR,,0.00,0.0,WeatherDisplay:10.37,2013-03-25 03:38:00,
2013-03-25 04:43:00,28.9,15.5,29.97,East,88,8.4,15.0,57,0.00,CLR,,0.00,0.0,WeatherDisplay:10.37,2013-03-25 03:43:00,
2013-03-25 04:48:00,28.9,15.5,29.97,ESE,103,8.6,16.1,57,0.00,CLR,,0.00,0.0,WeatherDisplay:10.37,2013-03-25 03:48:00,
2013-03-25 04:53:00,28.9,15.5,29.97,East,97,9.0,11.5,57,0.00,CLR,,0.00,0.0,WeatherDisplay:10.37,2013-03-25 03:53:00,
2013-03-25 04:58:00,28.9,15.5,29.97,East,97,12.9,20.7,57,0.00,CLR,,0.00,0.0,WeatherDisplay:10.37,2013-03-25 03:58:00,
2013-03-25 05:00:00,28.8,15.4,29.97,East,94,9.0,18.4,57,0.00,CLR,,0.00,0.0,WeatherDisplay:10.37,2013-03-25 04:00:00,
2013-03-25 05:05:00,28.8,15.8,29.97,ENE,69,9.2,12.0,58,0.00,CLR,,0.00,0.0,WeatherDisplay:10.37,2013-03-25 04:05:00,
2013-03-25 05:10:00,28.8,15.8,29.97,ENE,73,9.3,13.8,58,0.00,CLR,,0.00,0.0,WeatherDisplay:10.37,2013-03-25 04:10:00,
2013-03-25 05:15:00,28.8,15.8,29.97,East,94,12.7,19.6,58,0.00,CLR,,0.00,0.0,WeatherDisplay:10.37,2013-03-25 04:15:00,
2013-03-25 05:20:00,28.8,15.8,29.98,East,81,11.2,15.0,58,0.00,CLR,,0.00,0.0,WeatherDisplay:10.37,2013-03-25 04:20:00,
2013-03-25 05:25:00,28.8,15.8,29.98,ESE,108,13.8,19.6,58,0.00,CLR,,0.00,0.0,WeatherDisplay:10.37,2013-03-25 04:25:00,
2013-03-25 05:30:00,28.8,15.8,29.98,East,94,8.0,12.7,58,0.00,CLR,,0.00,0.0,WeatherDisplay:10.37,2013-03-25 04:30:00,
2013-03-25 05:35:00,28.8,15.8,29.98,East,86,7.0,11.5,58,0.00,CLR,,0.00,0.0,WeatherDisplay:10.37,2013-03-25 04:35:00,
2013-03-25 05:40:00,28.7,15.8,29.98,ENE,77,7.9,12.7,58,0.00,CLR,,0.00,0.0,WeatherDisplay:10.37,2013-03-25 04:40:00,
2013-03-25 05:45:00,28.7,15.8,29.98,East,92,15.1,21.9,58,0.00,CLR,,0.00,0.0,WeatherDisplay:10.37,2013-03-25 04:45:00,
2013-03-25 05:50:00,28.7,15.8,29.98,East,92,10.5,13.8,58,0.00,CLR,,0.00,0.0,WeatherDisplay:10.37,2013-03-25 04:50:00,
2013-03-25 05:55:00,28.6,15.7,29.98,NE,46,11.5,18.4,58,0.00,CLR,,0.00,0.0,WeatherDisplay:10.37,2013-03-25 04:55:00,
2013-03-25 06:00:00,28.6,15.3,29.98,ENE,72,12.0,19.6,57,0.00,CLR,,0.00,0.0,WeatherDisplay:10.37,2013-03-25 05:00:00,
2013-03-25 06:05:00,28.6,15.7,29.98,ENE,61,10.4,17.3,58,0.00,CLR,,0.00,0.0,WeatherDisplay:10.37,2013-03-25 05:05:00,
2013-03-25 06:10:00,28.6,15.7,29.98,East,84,6.6,11.5,58,0.00,CLR,,0.00,0.0,WeatherDisplay:10.37,2013-03-25 05:10:00,
2013-03-25 06:15:00,28.5,15.2,29.98,ENE,59,11.2,19.6,57,0.00,CLR,,0.00,0.0,WeatherDisplay:10.37,2013-03-25 05:15:00,
2013-03-25 06:20:00,28.5,15.2,29.98,East,86,11.5,15.0,57,0.00,CLR,,0.00,0.0,WeatherDisplay:10.37,2013-03-25 05:20:00,
2013-03-25 06:25:00,28.6,15.3,29.98,East,84,8.1,11.5,57,0.00,CLR,,0.00,0.0,WeatherDisplay:10.37,2013-03-25 05:25:00,
2013-03-25 06:30:00,28.5,15.2,29.99,East,101,13.7,19.6,57,0.00,CLR,,0.00,0.0,WeatherDisplay:10.37,2013-03-25 05:30:00,
2013-03-25 06:35:00,28.5,15.2,29.98,ENE,71,10.1,19.6,57,0.00,CLR,,0.00,0.0,WeatherDisplay:10.37,2013-03-25 05:35:00,
2013-03-25 06:40:00,28.5,15.2,29.99,East,81,4.6,8.0,57,0.00,CLR,,0.00,0.0,WeatherDisplay:10.37,2013-03-25 05:40:00,
2013-03-25 06:45:00,28.5,15.2,29.99,East,92,8.8,15.0,57,0.00,CLR,,0.00,7.0,WeatherDisplay:10.37,2013-03-25 05:45:00,
2013-03-25 06:50:00,28.5,15.2,29.99,East,100,10.1,15.0,57,0.00,CLR,,0.00,9.0,WeatherDisplay:10.37,2013-03-25 05:50:00,
2013-03-25 06:55:00,28.6,15.3,29.99,ENE,61,6.4,15.0,57,0.00,CLR,,0.00,12.0,WeatherDisplay:10.37,2013-03-25 05:55:00,
2013-03-25 07:00:00,28.6,15.3,29.99,ENE,62,9.4,15.0,57,0.00,CLR,,0.00,18.0,WeatherDisplay:10.37,2013-03-25 06:00:00,
2013-03-25 07:05:00,28.6,15.3,29.99,ENE,77,7.2,13.8,57,0.00,CLR,,0.00,21.0,WeatherDisplay:10.37,2013-03-25 06:05:00,
2013-03-25 07:10:00,28.7,15.4,29.99,East,98,13.2,16.1,57,0.00,CLR,,0.00,26.0,WeatherDisplay:10.37,2013-03-25 06:10:00,
2013-03-25 07:15:00,28.7,15.4,29.99,ESE,107,12.0,17.3,57,0.00,CLR,,0.00,32.0,WeatherDisplay:10.37,2013-03-25 06:15:00,
2013-03-25 07:20:00,28.8,15.4,29.99,ENE,73,9.1,11.5,57,0.00,CLR,,0.00,37.0,WeatherDisplay:10.37,2013-03-25 06:20:00,
2013-03-25 07:25:00,28.8,15.4,29.99,ESE,103,13.6,19.6,57,0.00,CLR,,0.00,44.0,WeatherDisplay:10.37,2013-03-25 06:25:00,
2013-03-25 07:30:00,28.8,15.4,29.99,ENE,65,8.7,15.0,57,0.00,CLR,,0.00,49.0,WeatherDisplay:10.37,2013-03-25 06:30:00,
2013-03-25 07:35:00,28.9,15.5,29.99,ENE,78,9.1,12.7,57,0.00,BKN,,0.00,58.0,WeatherDisplay:10.37,2013-03-25 06:35:00,
2013-03-25 07:40:00,29.0,15.6,29.99,East,91,11.8,18.4,57,0.00,BKN,,0.00,69.0,WeatherDisplay:10.37,2013-03-25 06:40:00,
2013-03-25 07:45:00,29.0,15.6,29.99,ENE,65,6.7,11.5,57,0.00,BKN,,0.00,81.0,WeatherDisplay:10.37,2013-03-25 06:45:00,
2013-03-25 07:50:00,29.0,15.2,29.99,East,87,13.0,20.7,56,0.00,BKN,,0.00,90.0,WeatherDisplay:10.37,2013-03-25 06:50:00,
2013-03-25 07:55:00,29.1,15.7,29.99,ENE,78,12.5,20.7,57,0.00,BKN,,0.00,100.0,WeatherDisplay:10.37,2013-03-25 06:55:00,
2013-03-25 08:00:00,29.1,15.7,29.99,East,95,12.0,17.3,57,0.00,BKN,,0.00,113.0,WeatherDisplay:10.37,2013-03-25 07:00:00,
2013-03-25 08:05:00,29.2,15.8,29.98,ESE,119,12.1,19.6,57,0.00,BKN,,0.00,128.0,WeatherDisplay:10.37,2013-03-25 07:05:00,
2013-03-25 08:10:00,29.3,15.9,29.98,East,85,16.5,23.0,57,0.00,BKN,,0.00,160.0,WeatherDisplay:10.37,2013-03-25 07:10:00,
2013-03-25 08:15:00,29.4,16.0,29.99,ESE,113,9.7,15.0,57,0.00,SCT,,0.00,213.0,WeatherDisplay:10.37,2013-03-25 07:15:00,
2013-03-25 08:20:00,29.5,15.7,29.99,ESE,108,14.4,21.0,56,0.00,SCT,,0.00,246.0,WeatherDisplay:10.37,2013-03-25 07:20:00,
2013-03-25 08:25:00,29.7,15.9,29.99,ENE,76,12.2,18.4,56,0.00,SCT,,0.00,260.0,WeatherDisplay:10.37,2013-03-25 07:25:00,
2013-03-25 08:30:00,29.8,16.0,29.99,ENE,72,15.9,21.9,56,0.00,FEW,,0.00,295.0,WeatherDisplay:10.37,2013-03-25 07:30:00,
2013-03-25 08:35:00,29.9,16.1,29.99,ESE,116,13.5,18.4,56,0.00,SCT,,0.00,199.0,WeatherDisplay:10.37,2013-03-25 07:35:00,
2013-03-25 08:40:00,29.8,15.6,29.99,East,97,13.6,21.9,55,0.00,BKN,,0.00,163.0,WeatherDisplay:10.37,2013-03-25 07:40:00,
2013-03-25 08:45:00,29.8,16.0,29.98,East,97,11.7,19.6,56,0.00,BKN,,0.00,171.0,WeatherDisplay:10.37,2013-03-25 07:45:00,
2013-03-25 08:50:00,29.9,16.1,29.98,East,99,10.1,18.0,56,0.00,BKN,,0.00,176.0,WeatherDisplay:10.37,2013-03-25 07:50:00,
2013-03-25 08:55:00,29.9,16.1,29.98,East,86,14.8,21.9,56,0.00,BKN,,0.00,179.0,WeatherDisplay:10.37,2013-03-25 07:55:00,
2013-03-25 09:00:00,30.0,16.2,29.98,East,97,9.0,19.6,56,0.00,BKN,,0.00,190.0,WeatherDisplay:10.37,2013-03-25 08:00:00,
2013-03-25 09:05:00,30.0,15.7,29.98,East,83,14.6,19.6,55,0.00,BKN,,0.00,195.0,WeatherDisplay:10.37,2013-03-25 08:05:00,
2013-03-25 09:10:00,29.9,15.7,29.99,East,81,14.8,21.0,55,0.00,BKN,,0.00,197.0,WeatherDisplay:10.37,2013-03-25 08:10:00,
2013-03-25 09:15:00,30.0,15.7,29.98,East,87,13.2,23.0,55,0.00,BKN,,0.00,202.0,WeatherDisplay:10.37,2013-03-25 08:15:00,
2013-03-25 09:20:00,30.2,15.5,29.98,East,99,11.7,14.0,54,0.00,BKN,,0.00,211.0,WeatherDisplay:10.37,2013-03-25 08:20:00,
2013-03-25 09:28:00,30.5,15.8,29.98,ESE,122,21.0,21.0,54,0.00,OVC,,0.00,227.0,WeatherDisplay:10.37,2013-03-25 08:28:00,
2013-03-25 09:33:00,30.7,16.0,29.98,East,95,11.3,18.4,54,0.00,BKN,,0.00,220.0,WeatherDisplay:10.37,2013-03-25 08:33:00,
2013-03-25 09:38:00,30.9,15.7,29.98,NE,34,16.1,16.1,53,0.00,BKN,,0.00,209.0,WeatherDisplay:10.37,2013-03-25 08:38:00,
2013-03-25 09:43:00,30.8,15.6,29.98,East,81,15.1,24.2,53,0.00,BKN,,0.00,214.0,WeatherDisplay:10.37,2013-03-25 08:43:00,
2013-03-25 09:48:00,30.7,16.0,29.98,ESE,107,14.4,18.0,54,0.00,BKN,,0.00,243.0,WeatherDisplay:10.37,2013-03-25 08:48:00,
2013-03-25 09:53:00,30.6,15.5,29.98,ENE,71,14.5,24.2,53,0.00,BKN,,0.00,271.0,WeatherDisplay:10.37,2013-03-25 08:53:00,
2013-03-25 09:58:00,30.9,15.7,29.98,NE,53,15.1,19.6,53,0.00,BKN,,0.00,330.0,WeatherDisplay:10.37,2013-03-25 08:58:00,
2013-03-25 10:03:00,31.1,15.5,29.98,East,88,12.4,19.6,52,0.00,BKN,,0.00,288.0,WeatherDisplay:10.37,2013-03-25 09:03:00,
2013-03-25 10:08:00,31.4,15.8,29.98,East,95,17.1,24.2,52,0.00,BKN,,0.00,279.0,WeatherDisplay:10.37,2013-03-25 09:08:00,
2013-03-25 10:13:00,31.6,15.5,29.98,East,99,15.9,25.3,51,0.00,BKN,,0.00,367.0,WeatherDisplay:10.37,2013-03-25 09:13:00,
2013-03-25 10:18:00,31.7,16.0,29.98,East,98,10.0,25.3,52,0.00,BKN,,0.00,325.0,WeatherDisplay:10.37,2013-03-25 09:18:00,
2013-03-25 10:23:00,31.8,15.7,29.98,ENE,76,16.4,25.3,51,0.00,BKN,,0.00,285.0,WeatherDisplay:10.37,2013-03-25 09:23:00,
2013-03-25 10:28:00,31.8,15.7,29.98,SE,124,13.5,24.2,51,0.00,SCT,,0.00,490.0,WeatherDisplay:10.37,2013-03-25 09:28:00,
2013-03-25 10:33:00,32.1,15.5,29.98,ENE,67,12.9,19.6,50,0.00,BKN,,0.00,422.0,WeatherDisplay:10.37,2013-03-25 09:33:00,
2013-03-25 10:38:00,32.2,15.6,29.98,ENE,59,14.4,20.7,50,0.00,FEW,,0.00,541.0,WeatherDisplay:10.37,2013-03-25 09:38:00,
2013-03-25 10:43:00,32.5,15.9,29.98,ENE,61,11.9,18.4,50,0.00,FEW,,0.00,271.0,WeatherDisplay:10.37,2013-03-25 09:43:00,
2013-03-25 10:48:00,32.6,15.5,29.98,ENE,71,11.8,18.4,49,0.00,BKN,,0.00,522.0,WeatherDisplay:10.37,2013-03-25 09:48:00,
2013-03-25 10:53:00,32.5,15.9,29.97,East,87,9.1,16.1,50,0.00,BKN,,0.00,309.0,WeatherDisplay:10.37,2013-03-25 09:53:00,
2013-03-25 10:58:00,32.6,15.5,29.98,East,86,16.1,23.0,49,0.00,BKN,,0.00,364.0,WeatherDisplay:10.37,2013-03-25 09:58:00,
2013-03-25 11:03:00,32.7,15.6,29.97,East,83,11.8,21.0,49,0.00,SCT,,0.00,594.0,WeatherDisplay:10.37,2013-03-25 10:03:00,
2013-03-25 11:08:00,32.8,15.2,29.98,NE,50,16.6,23.0,48,0.00,SCT,,0.00,418.0,WeatherDisplay:10.37,2013-03-25 10:08:00,
2013-03-25 11:13:00,32.8,15.7,29.97,East,82,12.6,18.4,49,0.00,BKN,,0.00,374.0,WeatherDisplay:10.37,2013-03-25 10:13:00,
2013-03-25 11:18:00,33.2,16.1,29.97,East,88,16.4,22.0,49,0.00,SCT,,0.00,601.0,WeatherDisplay:10.37,2013-03-25 10:18:00,
2013-03-25 11:23:00,33.2,15.6,29.97,ESE,103,13.8,19.6,48,0.00,SCT,,0.00,552.0,WeatherDisplay:10.37,2013-03-25 10:23:00,
2013-03-25 11:28:00,33.3,15.2,29.97,ESE,102,15.0,19.6,47,0.00,SCT,,0.00,371.0,WeatherDisplay:10.37,2013-03-25 10:28:00,
2013-03-25 11:33:00,33.5,15.9,29.97,East,96,11.4,21.9,48,0.00,BKN,,0.00,394.0,WeatherDisplay:10.37,2013-03-25 10:33:00,
2013-03-25 11:38:00,33.8,16.1,29.97,East,82,13.1,14.0,48,0.00,SCT,,0.00,571.0,WeatherDisplay:10.37,2013-03-25 10:38:00,
2013-03-25 11:43:00,33.9,15.7,29.97,East,96,12.9,20.0,47,0.00,FEW,,0.00,779.0,WeatherDisplay:10.37,2013-03-25 10:43:00,
2013-03-25 11:48:00,34.2,16.0,29.96,ESE,113,15.6,21.9,47,0.00,FEW,,0.00,721.0,WeatherDisplay:10.37,2013-03-25 10:48:00,
2013-03-25 11:54:00,34.7,16.5,29.96,ENE,76,14.7,19.6,47,0.00,FEW,,0.00,712.0,WeatherDisplay:10.37,2013-03-25 10:54:00,
2013-03-25 11:59:00,34.8,16.1,29.96,NE,53,12.4,19.6,46,0.00,FEW,,0.00,728.0,WeatherDisplay:10.37,2013-03-25 10:59:00,
2013-03-25 12:04:00,34.3,15.6,29.96,ENE,70,13.1,19.6,46,0.00,SCT,,0.00,422.0,WeatherDisplay:10.37,2013-03-25 11:04:00,
2013-03-25 12:09:00,34.1,15.9,29.96,NNE,33,11.4,17.3,47,0.00,FEW,,0.00,705.0,WeatherDisplay:10.37,2013-03-25 11:09:00,
2013-03-25 12:14:00,34.6,16.4,29.96,East,88,10.1,19.6,47,0.00,FEW,,0.00,708.0,WeatherDisplay:10.37,2013-03-25 11:14:00,
2013-03-25 12:19:00,35.2,15.9,29.95,ENE,57,12.3,18.4,45,0.00,FEW,,0.00,708.0,WeatherDisplay:10.37,2013-03-25 11:19:00,
2013-03-25 12:24:00,35.3,16.0,29.95,ENE,71,13.0,21.9,45,0.00,FEW,,0.00,710.0,WeatherDisplay:10.37,2013-03-25 11:24:00,
2013-03-25 12:29:00,35.4,16.1,29.95,ENE,61,13.7,20.7,45,0.00,FEW,,0.00,705.0,WeatherDisplay:10.37,2013-03-25 11:29:00,
2013-03-25 12:34:00,35.9,16.1,29.95,East,101,7.7,25.3,44,0.00,FEW,,0.00,696.0,WeatherDisplay:10.37,2013-03-25 11:34:00,
2013-03-25 12:39:00,36.3,15.9,29.95,ENE,61,13.5,20.7,43,0.00,FEW,,0.00,698.0,WeatherDisplay:10.37,2013-03-25 11:39:00,
2013-03-25 12:44:00,36.7,15.7,29.94,East,91,12.4,18.4,42,0.00,FEW,,0.00,698.0,WeatherDisplay:10.37,2013-03-25 11:44:00,
2013-03-25 12:49:00,37.0,16.0,29.94,ESE,109,12.5,23.0,42,0.00,FEW,,0.00,700.0,WeatherDisplay:10.37,2013-03-25 11:49:00,
2013-03-25 12:54:00,37.2,15.6,29.94,ENE,64,10.6,15.0,41,0.00,FEW,,0.00,721.0,WeatherDisplay:10.37,2013-03-25 11:54:00,
2013-03-25 12:59:00,37.1,15.5,29.94,East,90,14.2,19.6,41,0.00,FEW,,0.00,726.0,WeatherDisplay:10.37,2013-03-25 11:59:00,
2013-03-25 13:04:00,36.8,14.7,29.94,ENE,58,14.3,20.7,40,0.00,BKN,,0.00,399.0,WeatherDisplay:10.37,2013-03-25 12:04:00,
2013-03-25 13:09:00,37.3,15.7,29.94,East,93,15.4,19.6,41,0.00,FEW,,0.00,605.0,WeatherDisplay:10.37,2013-03-25 12:09:00,
2013-03-25 13:14:00,37.6,15.4,29.94,East,81,11.7,20.7,40,0.00,SCT,,0.00,492.0,WeatherDisplay:10.37,2013-03-25 12:14:00,
2013-03-25 13:19:00,37.5,15.3,29.94,ENE,69,13.2,21.9,40,0.00,SCT,,0.00,533.0,WeatherDisplay:10.37,2013-03-25 12:19:00,
2013-03-25 13:24:00,37.2,15.0,29.93,East,83,11.6,16.1,40,0.00,FEW,,0.00,708.0,WeatherDisplay:10.37,2013-03-25 12:24:00,
2013-03-25 13:29:00,37.2,15.0,29.93,ENE,62,12.5,20.7,40,0.00,SCT,,0.00,584.0,WeatherDisplay:10.37,2013-03-25 12:29:00,
2013-03-25 13:34:00,37.5,15.3,29.93,East,80,15.5,19.6,40,0.00,FEW,,0.00,728.0,WeatherDisplay:10.37,2013-03-25 12:34:00,
2013-03-25 13:39:00,37.8,15.6,29.93,ENE,69,13.4,19.6,40,0.00,SCT,,0.00,529.0,WeatherDisplay:10.37,2013-03-25 12:39:00,
2013-03-25 13:44:00,37.8,15.6,29.93,NE,51,10.8,18.4,40,0.00,SCT,,0.00,489.0,WeatherDisplay:10.37,2013-03-25 12:44:00,
2013-03-25 13:49:00,38.1,16.4,29.93,ENE,57,8.0,11.5,41,0.00,SCT,,0.00,548.0,WeatherDisplay:10.37,2013-03-25 12:49:00,
2013-03-25 13:54:00,38.8,14.1,29.93,East,100,15.7,26.5,36,0.00,BKN,,0.00,396.0,WeatherDisplay:10.37,2013-03-25 12:54:00,
2013-03-25 13:59:00,39.1,13.7,29.93,SE,124,14.7,19.6,35,0.00,SCT,,0.00,501.0,WeatherDisplay:10.37,2013-03-25 12:59:00,
2013-03-25 14:04:00,39.3,14.5,29.93,East,92,13.3,20.7,36,0.00,FEW,,0.00,779.0,WeatherDisplay:10.37,2013-03-25 13:04:00,
2013-03-25 14:09:00,39.5,14.7,29.92,ENE,78,12.5,20.7,36,0.00,FEW,,0.00,844.0,WeatherDisplay:10.37,2013-03-25 13:09:00,
2013-03-25 14:14:00,40.5,14.3,29.92,East,92,14.9,23.0,34,0.00,FEW,,0.00,715.0,WeatherDisplay:10.37,2013-03-25 13:14:00,
2013-03-25 14:19:00,40.6,13.7,29.92,ESE,103,21.8,31.1,33,0.00,FEW,,0.00,737.0,WeatherDisplay:10.37,2013-03-25 13:19:00,
2013-03-25 14:24:00,40.2,13.3,29.92,ESE,110,17.6,24.2,33,0.00,SCT,,0.00,424.0,WeatherDisplay:10.37,2013-03-25 13:24:00,
2013-03-25 14:29:00,39.6,14.1,29.92,East,100,11.5,19.0,35,0.00,FEW,,0.00,733.0,WeatherDisplay:10.37,2013-03-25 13:29:00,
2013-03-25 14:34:00,39.6,14.1,29.91,ENE,77,15.2,21.9,35,0.00,FEW,,0.00,719.0,WeatherDisplay:10.37,2013-03-25 13:34:00,
2013-03-25 14:39:00,39.5,13.4,29.92,ENE,66,14.6,19.6,34,0.00,FEW,,0.00,622.0,WeatherDisplay:10.37,2013-03-25 13:39:00,
2013-03-25 14:44:00,39.7,14.2,29.91,ENE,70,14.1,20.7,35,0.00,FEW,,0.00,624.0,WeatherDisplay:10.37,2013-03-25 13:44:00,
2013-03-25 14:49:00,39.4,14.0,29.92,ENE,59,13.3,23.0,35,0.00,FEW,,0.00,587.0,WeatherDisplay:10.37,2013-03-25 13:49:00,
2013-03-25 14:54:00,39.3,13.9,29.92,ENE,68,16.1,23.0,35,0.00,FEW,,0.00,631.0,WeatherDisplay:10.37,2013-03-25 13:54:00,
2013-03-25 14:59:00,39.3,13.9,29.91,ENE,57,12.7,21.9,35,0.00,FEW,,0.00,619.0,WeatherDisplay:10.37,2013-03-25 13:59:00,
2013-03-25 15:04:00,39.0,13.6,29.91,ENE,68,12.5,24.2,35,0.00,FEW,,0.00,598.0,WeatherDisplay:10.37,2013-03-25 14:04:00,
2013-03-25 15:09:00,39.6,14.1,29.91,ESE,118,11.6,16.1,35,0.00,FEW,,0.00,591.0,WeatherDisplay:10.37,2013-03-25 14:09:00,
2013-03-25 15:14:00,39.7,13.6,29.91,East,93,10.3,18.4,34,0.00,FEW,,0.00,563.0,WeatherDisplay:10.37,2013-03-25 14:14:00,
2013-03-25 15:19:00,39.5,13.4,29.91,ENE,72,11.4,19.6,34,0.00,FEW,,0.00,555.0,WeatherDisplay:10.37,2013-03-25 14:19:00,
2013-03-25 15:24:00,39.8,13.7,29.91,ESE,102,10.5,21.9,34,0.00,FEW,,0.00,547.0,WeatherDisplay:10.37,2013-03-25 14:24:00,
2013-03-25 15:30:00,39.9,13.1,29.91,East,97,15.9,26.5,33,0.00,FEW,,0.00,527.0,WeatherDisplay:10.37,2013-03-25 14:30:00,
2013-03-25 15:35:00,39.9,13.1,29.91,East,80,19.2,24.2,33,0.00,FEW,,0.00,524.0,WeatherDisplay:10.37,2013-03-25 14:35:00,
2013-03-25 15:40:00,39.9,13.1,29.91,East,89,10.3,17.3,33,0.00,FEW,,0.00,519.0,WeatherDisplay:10.37,2013-03-25 14:40:00,
2013-03-25 15:45:00,40.2,14.0,29.91,East,82,12.2,16.1,34,0.00,FEW,,0.00,496.0,WeatherDisplay:10.37,2013-03-25 14:45:00,
2013-03-25 15:50:00,39.8,13.0,29.91,East,93,13.8,21.9,33,0.00,FEW,,0.00,483.0,WeatherDisplay:10.37,2013-03-25 14:50:00,
2013-03-25 15:55:00,39.8,13.0,29.91,East,84,13.1,19.6,33,0.00,FEW,,0.00,482.0,WeatherDisplay:10.37,2013-03-25 14:55:00,
2013-03-25 16:00:00,39.9,13.7,29.90,East,82,11.2,15.0,34,0.00,FEW,,0.00,457.0,WeatherDisplay:10.37,2013-03-25 15:00:00,
2013-03-25 16:05:00,39.9,14.4,29.90,ENE,70,12.6,15.0,35,0.00,FEW,,0.00,436.0,WeatherDisplay:10.37,2013-03-25 15:05:00,
2013-03-25 16:10:00,40.0,13.8,29.90,ENE,77,11.2,18.0,34,0.00,FEW,,0.00,417.0,WeatherDisplay:10.37,2013-03-25 15:10:00,
2013-03-25 16:15:00,39.7,12.9,29.91,ESE,105,17.0,27.6,33,0.00,FEW,,0.00,406.0,WeatherDisplay:10.37,2013-03-25 15:15:00,
2013-03-25 16:20:00,39.8,13.7,29.90,SE,126,11.2,15.0,34,0.00,SCT,,0.00,392.0,WeatherDisplay:10.37,2013-03-25 15:20:00,
2013-03-25 16:25:00,39.8,13.7,29.90,East,92,15.9,19.0,34,0.00,FEW,,0.00,381.0,WeatherDisplay:10.37,2013-03-25 15:25:00,
2013-03-25 16:30:00,39.7,14.2,29.90,East,97,11.0,18.4,35,0.00,SCT,,0.00,366.0,WeatherDisplay:10.37,2013-03-25 15:30:00,
2013-03-25 16:35:00,39.7,13.6,29.90,East,101,14.5,24.2,34,0.00,SCT,,0.00,352.0,WeatherDisplay:10.37,2013-03-25 15:35:00,
2013-03-25 16:40:00,39.6,14.1,29.90,East,88,12.7,20.0,35,0.00,SCT,,0.00,338.0,WeatherDisplay:10.37,2013-03-25 15:40:00,
2013-03-25 16:45:00,39.3,13.9,29.90,East,87,13.1,19.6,35,0.00,SCT,,0.00,322.0,WeatherDisplay:10.37,2013-03-25 15:45:00,
2013-03-25 16:50:00,39.3,13.9,29.90,NE,38,7.7,13.8,35,0.00,SCT,,0.00,311.0,WeatherDisplay:10.37,2013-03-25 15:50:00,
2013-03-25 16:55:00,39.1,13.7,29.90,East,96,12.9,24.2,35,0.00,SCT,,0.00,292.0,WeatherDisplay:10.37,2013-03-25 15:55:00,
2013-03-25 17:00:00,39.0,13.6,29.90,East,94,11.1,19.6,35,0.00,SCT,,0.00,274.0,WeatherDisplay:10.37,2013-03-25 16:00:00,
2013-03-25 17:05:00,39.1,13.7,29.90,East,89,13.4,20.7,35,0.00,SCT,,0.00,267.0,WeatherDisplay:10.37,2013-03-25 16:05:00,
2013-03-25 17:10:00,39.1,13.7,29.90,ENE,69,10.5,20.7,35,0.00,SCT,,0.00,250.0,WeatherDisplay:10.37,2013-03-25 16:10:00,
2013-03-25 17:15:00,39.0,14.2,29.90,East,98,13.2,21.0,36,0.00,SCT,,0.00,236.0,WeatherDisplay:10.37,2013-03-25 16:15:00,
2013-03-25 17:20:00,38.9,14.2,29.90,East,91,12.0,13.8,36,0.00,SCT,,0.00,218.0,WeatherDisplay:10.37,2013-03-25 16:20:00,
2013-03-25 17:25:00,38.6,13.9,29.90,East,88,12.4,24.2,36,0.00,SCT,,0.00,200.0,WeatherDisplay:10.37,2013-03-25 16:25:00,
2013-03-25 17:30:00,38.7,14.0,29.90,ESE,103,15.4,21.9,36,0.00,SCT,,0.00,185.0,WeatherDisplay:10.37,2013-03-25 16:30:00,
2013-03-25 17:35:00,38.7,13.3,29.90,East,94,17.6,21.9,35,0.00,BKN,,0.00,132.0,WeatherDisplay:10.37,2013-03-25 16:35:00,
2013-03-25 17:40:00,38.5,13.8,29.90,ENE,65,6.6,17.3,36,0.00,BKN,,0.00,116.0,WeatherDisplay:10.37,2013-03-25 16:40:00,
2013-03-25 17:45:00,38.5,14.4,29.90,ESE,110,10.0,13.8,37,0.00,BKN,,0.00,102.0,WeatherDisplay:10.37,2013-03-25 16:45:00,
2013-03-25 17:50:00,38.4,14.9,29.90,ENE,67,13.7,15.0,38,0.00,OVC,,0.00,62.0,WeatherDisplay:10.37,2013-03-25 16:50:00,
2013-03-25 17:55:00,38.2,14.8,29.90,East,85,7.7,13.8,38,0.00,BKN,,0.00,93.0,WeatherDisplay:10.37,2013-03-25 16:55:00,
2013-03-25 18:00:00,38.1,14.7,29.90,ESE,103,14.2,19.6,38,0.00,OVC,,0.00,47.0,WeatherDisplay:10.37,2013-03-25 17:00:00,
2013-03-25 18:05:00,37.9,14.5,29.90,East,92,12.5,19.6,38,0.00,BKN,,0.00,79.0,WeatherDisplay:10.37,2013-03-25 17:05:00,
2013-03-25 18:10:00,37.8,15.0,29.91,East,98,13.4,16.0,39,0.00,BKN,,0.00,63.0,WeatherDisplay:10.37,2013-03-25 17:10:00,
2013-03-25 18:15:00,37.7,14.9,29.91,ENE,63,7.3,11.5,39,0.00,BKN,,0.00,44.0,WeatherDisplay:10.37,2013-03-25 17:15:00,
2013-03-25 18:20:00,37.6,14.8,29.91,East,101,9.0,13.0,39,0.00,BKN,,0.00,39.0,WeatherDisplay:10.37,2013-03-25 17:20:00,
2013-03-25 18:25:00,37.5,14.7,29.91,East,91,12.6,18.4,39,0.00,BKN,,0.00,33.0,WeatherDisplay:10.37,2013-03-25 17:25:00,
2013-03-25 18:30:00,37.4,15.2,29.91,East,87,13.8,20.7,40,0.00,BKN,,0.00,28.0,WeatherDisplay:10.37,2013-03-25 17:30:00,
2013-03-25 18:35:00,37.2,15.0,29.91,East,80,11.5,19.6,40,0.00,BKN,,0.00,25.0,WeatherDisplay:10.37,2013-03-25 17:35:00,
2013-03-25 18:40:00,37.1,15.0,29.91,East,90,11.1,13.8,40,0.00,BKN,,0.00,19.0,WeatherDisplay:10.37,2013-03-25 17:40:00,
2013-03-25 18:45:00,37.0,14.9,29.91,East,82,9.8,19.6,40,0.00,BKN,,0.00,16.0,WeatherDisplay:10.37,2013-03-25 17:45:00,
2013-03-25 18:50:00,36.9,14.8,29.91,ENE,67,9.4,13.8,40,0.00,BKN,,0.00,12.0,WeatherDisplay:10.37,2013-03-25 17:50:00,
2013-03-25 18:55:00,36.8,14.7,29.92,ESE,104,9.0,14.0,40,0.00,BKN,,0.00,9.0,WeatherDisplay:10.37,2013-03-25 17:55:00,
2013-03-25 19:00:00,36.7,14.6,29.92,ESE,113,12.8,14.0,40,0.00,BKN,,0.00,5.0,WeatherDisplay:10.37,2013-03-25 18:00:00,
2013-03-25 19:05:00,36.6,14.5,29.92,East,99,11.4,19.6,40,0.00,BKN,,0.00,0.0,WeatherDisplay:10.37,2013-03-25 18:05:00,
2013-03-25 19:10:00,36.5,15.0,29.92,East,79,9.4,19.6,41,0.00,BKN,,0.00,0.0,WeatherDisplay:10.37,2013-03-25 18:10:00,
2013-03-25 19:15:00,36.4,15.4,29.92,East,84,9.4,15.0,42,0.00,BKN,,0.00,0.0,WeatherDisplay:10.37,2013-03-25 18:15:00,
2013-03-25 19:20:00,36.3,15.4,29.92,ENE,69,9.8,15.0,42,0.00,BKN,,0.00,0.0,WeatherDisplay:10.37,2013-03-25 18:20:00,
2013-03-25 19:25:00,36.1,15.7,29.92,East,88,7.0,11.5,43,0.00,BKN,,0.00,0.0,WeatherDisplay:10.37,2013-03-25 18:25:00,
2013-03-25 19:30:00,35.9,15.5,29.92,ENE,70,7.3,13.0,43,0.00,BKN,,0.00,0.0,WeatherDisplay:10.37,2013-03-25 18:30:00,
2013-03-25 19:35:00,35.8,16.0,29.92,East,98,8.6,12.7,44,0.00,BKN,,0.00,0.0,WeatherDisplay:10.37,2013-03-25 18:35:00,
2013-03-25 19:40:00,35.7,15.9,29.93,East,80,11.1,18.4,44,0.00,BKN,,0.00,0.0,WeatherDisplay:10.37,2013-03-25 18:40:00,
2013-03-25 19:45:00,35.7,15.3,29.93,East,99,12.8,16.1,43,0.00,BKN,,0.00,0.0,WeatherDisplay:10.37,2013-03-25 18:45:00,
2013-03-25 19:50:00,35.6,15.3,29.93,ENE,67,8.2,11.5,43,0.00,BKN,,0.00,0.0,WeatherDisplay:10.37,2013-03-25 18:50:00,
2013-03-25 19:55:00,35.4,15.6,29.93,ESE,103,10.5,19.6,44,0.00,BKN,,0.00,0.0,WeatherDisplay:10.37,2013-03-25 18:55:00,
2013-03-25 20:00:00,35.4,15.6,29.93,East,86,11.7,12.7,44,0.00,BKN,,0.00,0.0,WeatherDisplay:10.37,2013-03-25 19:00:00,
2013-03-25 20:05:00,35.3,15.5,29.93,SE,124,9.3,15.0,44,0.00,BKN,,0.00,0.0,WeatherDisplay:10.37,2013-03-25 19:05:00,
2013-03-25 20:10:00,35.2,15.9,29.93,ESE,111,9.3,15.0,45,0.00,BKN,,0.00,0.0,WeatherDisplay:10.37,2013-03-25 19:10:00,
2013-03-25 20:15:00,35.2,15.9,29.93,East,99,10.0,15.0,45,0.00,BKN,,0.00,0.0,WeatherDisplay:10.37,2013-03-25 19:15:00,
2013-03-25 20:20:00,35.1,15.8,29.93,ESE,102,11.7,16.1,45,0.00,BKN,,0.00,0.0,WeatherDisplay:10.37,2013-03-25 19:20:00,
2013-03-25 20:25:00,34.9,15.7,29.93,East,99,8.8,15.0,45,0.00,BKN,,0.00,0.0,WeatherDisplay:10.37,2013-03-25 19:25:00,
2013-03-25 20:30:00,35.0,15.8,29.93,East,92,11.4,16.1,45,0.00,BKN,,0.00,0.0,WeatherDisplay:10.37,2013-03-25 19:30:00,
2013-03-25 20:35:00,34.8,16.1,29.93,East,95,7.5,11.5,46,0.00,BKN,,0.00,0.0,WeatherDisplay:10.37,2013-03-25 19:35:00,
2013-03-25 20:40:00,34.7,16.0,29.93,East,97,7.0,12.0,46,0.00,BKN,,0.00,0.0,WeatherDisplay:10.37,2013-03-25 19:40:00,
2013-03-25 20:45:00,34.7,16.0,29.93,East,94,9.3,13.8,46,0.00,BKN,,0.00,0.0,WeatherDisplay:10.37,2013-03-25 19:45:00,
2013-03-25 20:50:00,34.5,16.3,29.93,East,93,10.7,15.0,47,0.00,BKN,,0.00,0.0,WeatherDisplay:10.37,2013-03-25 19:50:00,
2013-03-25 20:55:00,34.5,16.3,29.94,ENE,76,7.5,9.2,47,0.00,BKN,,0.00,0.0,WeatherDisplay:10.37,2013-03-25 19:55:00,
2013-03-25 21:00:00,34.4,16.2,29.94,East,90,6.8,11.5,47,0.00,BKN,,0.00,0.0,WeatherDisplay:10.37,2013-03-25 20:00:00,
2013-03-25 21:05:00,34.1,16.4,29.94,East,101,5.3,11.5,48,0.00,BKN,,0.00,0.0,WeatherDisplay:10.37,2013-03-25 20:05:00,
2013-03-25 21:10:00,34.0,16.8,29.94,ENE,75,8.8,17.3,49,0.00,BKN,,0.00,0.0,WeatherDisplay:10.37,2013-03-25 20:10:00,
2013-03-25 21:15:00,33.9,16.7,29.94,East,90,10.0,13.8,49,0.00,BKN,,0.00,0.0,WeatherDisplay:10.37,2013-03-25 20:15:00,
2013-03-25 21:20:00,33.8,16.6,29.94,ENE,70,8.5,11.5,49,0.00,BKN,,0.00,0.0,WeatherDisplay:10.37,2013-03-25 20:20:00,
2013-03-25 21:29:00,33.6,16.9,29.94,ENE,78,5.7,11.5,50,0.00,CLR,,0.00,0.0,WeatherDisplay:10.37,2013-03-25 20:29:00,
2013-03-25 21:34:00,33.5,16.8,29.94,East,86,10.3,19.6,50,0.00,CLR,,0.00,0.0,WeatherDisplay:10.37,2013-03-25 20:34:00,
2013-03-25 21:39:00,33.4,16.7,29.94,East,96,12.1,15.0,50,0.00,CLR,,0.00,0.0,WeatherDisplay:10.37,2013-03-25 20:39:00,
2013-03-25 21:44:00,33.4,16.7,29.94,ENE,64,7.8,13.8,50,0.00,CLR,,0.00,0.0,WeatherDisplay:10.37,2013-03-25 20:44:00,
2013-03-25 21:49:00,33.3,17.1,29.94,ENE,67,11.9,15.0,51,0.00,CLR,,0.00,0.0,WeatherDisplay:10.37,2013-03-25 20:49:00,
2013-03-25 21:54:00,33.2,17.0,29.94,East,81,11.3,13.8,51,0.00,CLR,,0.00,0.0,WeatherDisplay:10.37,2013-03-25 20:54:00,
2013-03-25 21:59:00,33.1,17.3,29.94,ENE,74,10.7,13.8,52,0.00,CLR,,0.00,0.0,WeatherDisplay:10.37,2013-03-25 20:59:00,
2013-03-25 22:04:00,33.1,17.3,29.94,ENE,77,9.2,15.0,52,0.00,CLR,,0.00,0.0,WeatherDisplay:10.37,2013-03-25 21:04:00,
2013-03-25 22:09:00,33.1,17.3,29.94,East,83,4.7,11.5,52,0.00,CLR,,0.00,0.0,WeatherDisplay:10.37,2013-03-25 21:09:00,
2013-03-25 22:14:00,33.0,17.7,29.94,NE,56,12.1,16.1,53,0.00,CLR,,0.00,0.0,WeatherDisplay:10.37,2013-03-25 21:14:00,
2013-03-25 22:19:00,32.9,17.6,29.94,East,85,4.9,12.7,53,0.00,CLR,,0.00,0.0,WeatherDisplay:10.37,2013-03-25 21:19:00,
2013-03-25 22:24:00,32.8,17.5,29.94,ENE,67,7.9,15.0,53,0.00,CLR,,0.00,0.0,WeatherDisplay:10.37,2013-03-25 21:24:00,
2013-03-25 22:29:00,32.8,17.5,29.94,East,96,10.8,15.0,53,0.00,CLR,,0.00,0.0,WeatherDisplay:10.37,2013-03-25 21:29:00,
2013-03-25 22:34:00,32.7,17.4,29.94,East,86,4.0,11.5,53,0.00,CLR,,0.00,0.0,WeatherDisplay:10.37,2013-03-25 21:34:00,
2013-03-25 22:39:00,32.7,17.4,29.95,East,94,15.6,19.0,53,0.00,CLR,,0.00,0.0,WeatherDisplay:10.37,2013-03-25 21:39:00,
2013-03-25 22:44:00,32.7,17.4,29.95,East,90,8.8,13.8,53,0.00,CLR,,0.00,0.0,WeatherDisplay:10.37,2013-03-25 21:44:00,
2013-03-25 22:49:00,32.7,17.4,29.95,East,84,8.2,14.0,53,0.00,CLR,,0.00,0.0,WeatherDisplay:10.37,2013-03-25 21:49:00,
2013-03-25 22:54:00,32.7,17.4,29.94,East,91,12.6,20.7,53,0.00,CLR,,0.00,0.0,WeatherDisplay:10.37,2013-03-25 21:54:00,
2013-03-25 22:59:00,32.7,17.0,29.94,ESE,105,17.2,20.7,52,0.00,CLR,,0.00,0.0,WeatherDisplay:10.37,2013-03-25 21:59:00,
2013-03-25 23:04:00,32.7,17.0,29.94,East,95,10.9,20.7,52,0.00,CLR,,0.00,0.0,WeatherDisplay:10.37,2013-03-25 22:04:00,
2013-03-25 23:09:00,32.7,17.4,29.94,ENE,73,10.3,16.1,53,0.00,CLR,,0.00,0.0,WeatherDisplay:10.37,2013-03-25 22:09:00,
2013-03-25 23:14:00,32.6,17.3,29.94,East,84,8.8,14.0,53,0.00,CLR,,0.00,0.0,WeatherDisplay:10.37,2013-03-25 22:14:00,
2013-03-25 23:19:00,32.5,17.2,29.94,ENE,73,9.3,16.1,53,0.00,CLR,,0.00,0.0,WeatherDisplay:10.37,2013-03-25 22:19:00,
2013-03-25 23:24:00,32.4,17.1,29.95,ESE,103,11.0,15.0,53,0.00,CLR,,0.00,0.0,WeatherDisplay:10.37,2013-03-25 22:24:00,
2013-03-25 23:29:00,32.3,17.0,29.94,East,87,11.6,16.1,53,0.00,CLR,,0.00,0.0,WeatherDisplay:10.37,2013-03-25 22:29:00,
2013-03-25 23:34:00,32.2,16.9,29.94,East,80,10.4,13.8,53,0.00,CLR,,0.00,0.0,WeatherDisplay:10.37,2013-03-25 22:34:00,
2013-03-25 23:39:00,32.1,16.9,29.94,East,101,11.4,15.0,53,0.00,CLR,,0.00,0.0,WeatherDisplay:10.37,2013-03-25 22:39:00,
2013-03-25 23:44:00,32.0,17.2,29.94,East,85,7.7,16.1,54,0.00,CLR,,0.00,0.0,WeatherDisplay:10.37,2013-03-25 22:44:00,
2013-03-25 23:49:00,31.9,17.1,29.94,ESE,111,7.6,16.1,54,0.00,CLR,,0.00,0.0,WeatherDisplay:10.37,2013-03-25 22:49:00,
2013-03-25 23:54:00,31.8,17.0,29.94,East,101,11.5,12.0,54,0.00,CLR,,0.00,0.0,WeatherDisplay:10.37,2013-03-25 22:54:00,
2013-03-25 23:59:00,31.7,17.3,29.94,East,101,10.9,12.0,55,0.00,CLR,,0.00,0.0,WeatherDisplay:10.37,2013-03-25 22:59:00,